Flag for Sweden Weather past 2 weeks in Växjö, Sweden

Now
48 °F

Fog.


Feels Like: 46 °F
Forecast: 52 / 62 °F
Wind: 6 mph from Southwest

Location: Vaxjo Airport

Current Time: Jul 30, 2015 at 7:17:03 AM

Latest Report: Jul 30, 2015 at 6:50 AM


Visibility: 0 mi

Pressure: 29.50 "Hg

Humidity: 100%

Dew point: 48 °F

Location of VäxjöLocation

Historic Weather in Växjö — Graph

°F

Växjö temperature yesterday

Maximum temperature yesterday: 64 °F (at 1:50 PM)
Minimum temperature yesterday: 50 °F (at 11:50 PM)
Average temperature yesterday: 58 °F

Past Weeks' High & Low Weather Summary

 TemperatureHumidityPressure
High70 °F (Jul 17, 3:20 PM)100% (Jul 15, 6:20 AM)30.01 "Hg (Jul 15, 6:20 AM)
Low43 °F (Jul 25, 4:20 AM)38% (Jul 16, 2:20 PM)29.39 "Hg (Jul 26, 7:50 AM)
Average58 °F79%29.74 "Hg
* Reported Jul 15 6:20 AM — Jul 30 6:20 AM, Växjö, Weather by CustomWeather, © 2015

Note: Actual official high and low records may vary slightly from our data, if they occured in-between our weather recording intervals... More about our weather records

Advertising

Växjö weather history for previous 24 hours

 ConditionsComfort  
Time TempWeatherWind HumidityBarometerVisibility
6:20 AM
Thu, Jul 30
48 °FFog.5 mph100%29.50 "Hg0 mi
5:50 AM48 °FFog.5 mph94%29.50 "Hg2 mi
5:20 AM46 °FFog.5 mph100%29.50 "Hg2 mi
4:50 AM46 °FCool.5 mph100%29.47 "Hg1 mi
4:20 AM46 °FCool.6 mph100%29.50 "Hg5 mi
3:50 AM46 °FCool.5 mph100%29.50 "HgN/A
3:20 AM48 °FCool.6 mph94%29.50 "HgN/A
2:50 AM46 °FPassing clouds.6 mph100%29.50 "HgN/A
2:20 AM48 °FPassing clouds.6 mph94%29.50 "HgN/A
1:50 AM48 °FPassing clouds.6 mph100%29.50 "HgN/A
1:20 AM48 °FClear.7 mph100%29.50 "Hg10 mi
12:50 AM48 °FClear.6 mph100%29.50 "Hg10 mi
12:20 AM50 °FFog.5 mph100%29.50 "Hg2 mi
11:50 PM
Wed, Jul 29
50 °FPassing clouds.5 mph94%29.50 "HgN/A
11:20 PM52 °FClear.7 mph94%29.50 "Hg10 mi
10:50 PM52 °FPassing clouds.6 mph94%29.50 "HgN/A
10:20 PM54 °FLight rain. Partly cloudy.7 mph94%29.50 "HgN/A
9:50 PM55 °FRain showers. Broken clouds.5 mph88%29.50 "HgN/A
9:20 PM54 °FPassing clouds.6 mph94%29.50 "HgN/A
8:50 PM55 °FPassing clouds.6 mph88%29.50 "HgN/A
8:20 PM57 °FPartly sunny.7 mph88%29.50 "HgN/A
7:50 PM57 °FPassing clouds.8 mph94%29.50 "HgN/A
7:20 PM57 °FPassing clouds.9 mph88%29.50 "HgN/A
6:50 PM57 °FPassing clouds.8 mph94%29.50 "HgN/A
6:20 PM57 °FLight rain. Passing clouds.9 mph94%29.50 "HgN/A
5:50 PM55 °FLight rain. Passing clouds.8 mph94%29.50 "HgN/A
5:20 PM57 °FLight rain. Partly sunny.13 mph82%29.50 "HgN/A
4:50 PM59 °FBroken clouds.16 mph82%29.47 "HgN/A
4:20 PM61 °FMore clouds than sun.9 mph83%29.47 "HgN/A
3:50 PM61 °FScattered clouds.8 mph83%29.47 "HgN/A
3:20 PM61 °FScattered clouds.10 mph83%29.47 "HgN/A
2:50 PM59 °FBroken clouds.12 mph88%29.47 "HgN/A
2:20 PM64 °FScattered clouds.14 mph68%29.47 "HgN/A
1:50 PM64 °FPartly sunny.10 mph73%29.47 "HgN/A
1:20 PM63 °FPartly sunny.10 mph77%29.47 "HgN/A
12:50 PM63 °FScattered clouds.9 mph77%29.47 "HgN/A
12:20 PM63 °FPartly sunny.9 mph83%29.47 "HgN/A
11:50 AM63 °FScattered clouds.15 mph73%29.47 "HgN/A
11:20 AM61 °FPassing clouds.7 mph88%29.47 "HgN/A
10:50 AM59 °FBroken clouds.12 mph88%29.47 "HgN/A
10:20 AM63 °FBroken clouds.9 mph83%29.45 "HgN/A
9:20 AM59 °FBroken clouds.10 mph94%29.47 "HgN/A
8:50 AM59 °FBroken clouds.10 mph94%29.47 "HgN/A
8:20 AM57 °FHeavy rain. Mostly cloudy.10 mph94%29.47 "HgN/A
7:50 AM57 °FBroken clouds.9 mph94%29.45 "HgN/A
7:20 AM57 °FPartly sunny.9 mph94%29.45 "HgN/A
Weather by CustomWeather, © 2015

See weather overviewHow to use our weather pages